Location: Cingia de� Botti
(45.0833°N, 10.2667°E)
Time: 12:34:13
(UTC+00:00)

Daily predictions for brighter satellites

Satellite Brightness Start Highest point End
(mag) Time Altitude Azimuth Time Altitude Azimuth Time Altitude Azimuth
SL-24 R/B 4.4 16:44:26 10° SSE 16:48:56 89° E 16:53:58 10° NNW
Cosmos 1626 Rocket 3.8 16:45:21 10° SSE 16:49:36 49° E 16:53:53 10° NNE
Cosmos 1092 Rocket 4.3 16:44:37 10° SSE 16:50:23 43° E 16:56:08 10° NNE
Cosmos 2263 Rocket 4.5 16:48:07 10° W 16:51:55 18° NW 16:55:44 10° N
Cosmos 1898 Rocket 3.7 16:47:45 10° S 16:52:51 54° ESE 16:57:56 10° NNE
Cosmos 923 Rocket 4.2 16:48:58 10° NNW 16:54:20 85° WSW 16:59:38 10° SSE
CZ-4C R/B 3.8 16:53:25 10° N 16:56:31 48° WNW 16:59:39 10° SSW
TELKOM 3 4.3 16:54:46 10° NW 16:56:33 22° N 16:58:26 10° ENE
CZ-2C R/B 4.5 16:56:17 10° ENE 16:57:39 11° E 16:59:02 10° E
Cosmos 1680 Rocket 3.5 16:53:22 10° NNW 16:58:38 81° ENE 17:03:50 10° SSE
Nadezhda 4 Rocket 4.0 16:52:51 10° S 16:59:04 82° E 17:05:16 10° N
Meteor 2-10 Rocket 4.4 16:56:05 10° NNW 17:01:20 56° W 17:06:21 10° S
Cosmos 1328 4.3 16:58:09 10° SSE 17:01:52 39° E 17:05:35 10° NNE
CZ-2D R/B 3.7 17:01:26 10° SE 17:05:00 39° ENE 17:08:35 10° N
CZ-4B R/B 1.8 17:02:00 10° NNE 17:05:06 39° E 17:08:08 10° S
Landsat 5 4.4 17:02:31 10° N 17:06:13 45° WNW 17:09:51 10° SW
MOS 1 Rocket 3.7 17:02:52 10° NNE 17:06:50 35° E 17:10:50 10° SSE
Cosmos-2242 3.8 17:06:20 10° NNE 17:10:05 28° ENE 17:13:50 10° SE
NOSS 3-1 (C) 4.2 17:05:15 10° NW 17:12:49 88° NE 17:21:35 10° SE
COSMO-SKYMED 1 2.7 17:10:00 10° NNE 17:14:16 52° E 17:18:30 10° S
Cosmos 1937 Rocket 3.6 17:10:15 10° S 17:15:29 63° ESE 17:20:45 10° NNE
BREEZE-M DEB (TANK) 2.7 17:13:40 10° WNW 17:15:45 31° N 17:17:14 16° ENE
Cosmos 1758 Rocket 4.1 17:12:12 10° SSE 17:16:19 38° E 17:20:30 10° NNE
Aureole 3 3.5 17:14:50 10° NNW 17:17:49 53° W 17:20:43 10° S
USA 290 2.7 17:19:10 10° N 17:22:09 36° ENE 17:25:07 10° SE
NOSS 2-1 (C) 3.8 17:20:32 10° WSW 17:23:46 46° NW 17:27:08 10° NNE
CZ-4 R/B 4.4 17:20:53 10° SSE 17:24:57 59° ENE 17:29:04 10° N
Cosmos 1833 Rocket 2.7 17:20:35 10° NNW 17:26:08 57° ENE 17:31:39 10° SE
H-2A R/B 2.4 17:22:43 10° SE 17:27:25 41° ENE 17:32:17 10° N
Cosmos 1939 Rocket 3.3 17:25:39 10° S 17:29:42 68° W 17:33:45 10° NNW
NOSS 2-1 (D) 4.0 17:26:35 10° WSW 17:29:44 40° NW 17:33:03 10° NNE
Helios 1A Rocket 3.7 17:26:26 10° SE 17:30:02 30° ENE 17:33:41 10° N
H-2A R/B 3.4 17:27:14 10° N 17:31:22 42° WNW 17:35:23 10° SW
Cosmos 2344 4.4 17:23:27 10° NW 17:32:46 73° NE 17:45:48 10° SE
Cosmos 1602 Rocket 3.7 17:28:45 10° SSW 17:33:06 78° W 17:37:32 10° N
Cosmos 44 4.5 17:29:13 10° WSW 17:33:48 41° NW 17:38:41 10° NNE
Cosmos 2026 Rocket 3.9 17:28:10 10° S 17:34:16 73° E 17:40:30 10° NNE
USA 229 DEB 3.9 17:26:54 10° NW 17:34:16 88° NE 17:42:00 10° SE
USA 229 3.9 17:27:01 10° NW 17:34:22 88° NE 17:42:08 10° SE
Feng Yun 1-1 Rocket 4.3 17:29:28 10° SSE 17:34:57 86° WSW 17:40:37 10° NNW
CZ-3B R/B 2.1 17:32:32 10° NW 17:35:16 71° NE 17:43:47 10° ESE
SJ 16-02 3.6 17:33:08 10° WSW 17:36:40 23° WNW 17:40:13 10° N
YAOGAN 1 2.7 17:34:50 10° SE 17:39:00 49° ENE 17:43:11 10° N
SJ-11-01 4.5 17:36:22 10° SE 17:40:49 46° ENE 17:45:17 10° N
Cosmos 1689 Rocket 2.4 17:41:34 34° ENE 17:42:06 37° E 17:44:45 10° S
Cosmos 1844 Rocket 4.5 17:37:18 10° WSW 17:42:07 28° NW 17:46:57 10° N
Cosmos 1553 Rocket 4.1 17:36:38 10° N 17:42:55 55° ENE 17:49:05 10° SSE
Aureole 3 Rocket 2.5 17:40:16 10° N 17:43:34 89° E 17:47:44 10° S
COSMOS 2406 3.2 17:39:43 10° NNW 17:45:32 89° ENE 17:51:18 10° SSE
Cosmos 2082 Rocket 2.5 17:40:25 10° NNW 17:45:57 46° ENE 17:51:23 10° SE
HJ-1C 4.1 17:47:04 31° ENE 17:47:04 31° ENE 17:49:43 10° N
Cosmos 1825 Rocket 3.5 17:43:49 10° S 17:48:08 61° E 17:52:30 10° NNE
IRS-1C Rocket 4.1 17:43:13 10° SSE 17:48:28 88° WSW 17:53:46 10° NNW
Meteor 1-27 4.2 17:44:14 10° N 17:49:44 56° ENE 17:55:11 10° SSE
NOSS 3-1 (A) 4.2 17:42:21 10° NW 17:49:58 87° SW 17:58:46 10° SE
X-37B 1.0 17:47:11 10° W 17:50:20 59° SSW 17:51:36 31° SE
deb Kosmos-1763 4.4 17:49:13 10° N 17:52:37 38° ENE 17:52:52 37° ENE
Cosmos 1812 Rocket 4.4 17:48:33 10° NNW 17:52:49 53° W 17:57:02 10° S
ISS -2.4 17:50:16 10° NW 17:53:12 26° N 17:53:50 24° NNE
Okean O Rocket 4.2 17:51:02 10° SSW 17:54:38 24° W 17:58:14 10° NW
NOAA 15 4.5 17:50:46 10° SSE 17:56:00 77° ENE 18:01:19 10° NNW
CZ-4 R/B 1.3 17:54:38 10° SSE 17:58:41 86° WSW 18:02:40 10° NNW
Iridium 4 Rocket 3.7 17:55:44 10° N 18:01:06 73° W 18:05:56 10° S
ERS-2 2.1 17:58:42 10° NNE 18:02:21 80° WNW 18:05:59 10° SSW
CSL-04 Rocket 3.7 17:57:42 10° SSE 18:03:00 56° ENE 18:08:24 10° N
Okean-O 2.6 18:01:43 10° SSE 18:06:09 84° WSW 18:10:36 10° NNW
USA 234 4.3 18:05:52 21° NE 18:09:04 31° N 18:14:41 10° NW
CZ-4C R/B 4.4 18:05:29 10° NNW 18:09:23 16° N 18:11:46 14° NNE
S3M 3.9 18:03:22 10° N 18:09:25 60° ENE 18:15:28 10° SSE
Cosmos 1346 Rocket 3.0 18:07:18 10° SSW 18:11:14 71° WNW 18:15:11 10° N
Cosmos 1655 Rocket 4.0 18:05:24 10° SSE 18:11:25 55° E 18:17:28 10° NNE
Cosmos 2278 Rocket 2.4 18:06:14 10° SSW 18:11:55 74° WNW 18:17:11 12° NNE
Cosmos 1953 Rocket 3.4 18:10:17 10° S 18:14:37 77° E 18:17:58 17° NNE
CZ-2C R/B 4.2 18:09:29 10° S 18:14:45 49° W 18:20:18 10° NNW
SWARM A 4.3 18:14:02 10° S 18:17:20 73° W 18:18:52 29° N
Cosmos 2292 Rocket 3.3 18:14:30 10° S 18:19:27 74° E 18:20:41 44° NNE
Cosmos 1892 4.4 18:15:59 10° S 18:17:22 21° SSE 18:17:22 21° SSE
SAR-Lupe-4 4.1 18:17:50 19° N 18:20:17 59° WNW 18:23:48 10° SSW
Cosmos 44 Rocket 3.2 18:17:19 10° SSW 18:22:10 68° ESE 18:23:19 50° ENE
ARGOS 3.1 18:22:49 10° SSE 18:28:11 85° WSW 18:33:37 10° NNW
Meteor 2-2 Rocket 4.3 18:25:03 10° N 18:30:59 60° ENE 18:34:20 26° SSE
Cosmos 1869 3.9 18:27:26 10° N 18:30:11 44° N 18:30:11 44° N
CZ-2C R/B 2.6 18:33:45 13° NNE 18:38:49 77° ESE 18:44:26 10° S
Cosmos 468 4.4 18:33:33 10° NNW 18:38:50 87° WSW 18:41:13 34° SSE
Cosmos 494 Rocket 3.9 18:37:39 10° NNW 18:42:30 68° NE 18:42:30 68° NE
Cosmos 2150 Rocket 3.9 18:39:30 10° SSW 18:44:39 84° WNW 18:45:58 52° NNE
Cosmos 1048 Rocket 4.0 18:42:40 10° NNW 18:47:48 75° WSW 18:49:36 41° S
Cosmos 2297 3.9 18:46:50 10° SSW 18:51:23 54° SSE 18:51:23 54° SSE
SL-08 RB Rocket 4.3 18:59:18 49° SW 19:00:00 55° W 19:04:25 10° NNW
H-2A R/B 4.0 19:02:43 10° SSW 19:06:59 27° W 19:11:22 10° NW
Cosmos 1125 Rocket 3.8 19:04:09 10° SSW 19:08:41 62° WSW 19:08:41 62° WSW
Cosmos 2266 Rocket 4.3 19:07:31 10° SSW 19:13:42 63° W 19:19:48 10° N
Cosmos 1943 Rocket 4.3 19:22:19 10° SSW 19:23:18 16° SSW 19:23:18 16° SSW
Cosmos 2082 Rocket 3.9 19:24:56 10° NW 19:29:47 29° WSW 19:33:42 14° SSW
ATLAS 2AS CENTAUR R/B 4.4 19:44:05 10° NNW 19:48:20 24° N 19:48:20 24° N
USA 234 4.3 19:53:12 36° NNW 19:53:12 36° NNW 19:57:23 10° NW
CZ-4C R/B 4.4 19:54:03 10° NNW 19:56:58 23° N 19:56:58 23° N
